Weather History for K40J - March, 2013

Change the Weather History Date:

Friday, March 22, 2013

  Actual Average (KCTY) Record (KCTY)
Temperature  
Mean Temperature 56 °F 63 °F  
Max Temperature 72 °F 77 °F 84 °F (2011)
Min Temperature 42 °F 50 °F 39 °F (1998)
Degree Days  
Heating Degree Days 8 3  
Month to date heating degree days 109  
Since 1 July heating degree days 1229  
Cooling Degree Days 0 2  
Month to date cooling degree days 26  
Year to date cooling degree days 53  
Growing Degree Days 6 (Base 50)    
Moisture  
Dew Point 35 °F    
Average Humidity 50    
Maximum Humidity 100    
Minimum Humidity 19    
Precipitation  
Precipitation 0.02 in 0.14 in 0.04 in (2015)
Month to date precipitation 2.99  
Year to date precipitation 10.30  
Sea Level Pressure  
Sea Level Pressure 29.99 in    
Wind  
Wind Speed 3 mph (East)    
Max Wind Speed 13 mph    
Max Gust Speed 20 mph    
Visibility 10 miles    
Events      
T = Trace of Precipitation, MM = Missing Value Source: NWS Daily Summary

Daily Weather History Graph

Daily Weather History Graph

Search for Another Location

Airport or City:

Trip Planner

Search our weather history database for the weather conditions in past years. The results will help you decide how hot, cold, wet, or windy it might be!

Date:

Astronomy

Mar. 22, 2013 Rise Set
Actual Time 7:35 AM EDT 7:47 PM EDT
Civil Twilight 7:11 AM EDT 8:11 PM EDT
Nautical Twilight 6:43 AM EDT 8:38 PM EDT
Astronomical Twilight 6:15 AM EDT 9:07 PM EDT
Moon 3:30 PM EDT (3/22) 4:16 AM EDT (3/22)
Length of Visible Light 12h 59m
Length of Day
12h 11m
Waxing Gibbous, 77% of the Moon is Illuminated
Mar 22
Waxing Gibbous
Mar 27
Full
Apr 3
Last Quarter
Apr 10
New
Apr 18
First Quarter

Hourly Weather History & Observations

Time (EDT) Temp. Dew Point Humidity Pressure Visibility Wind Dir Wind Speed Gust Speed Precip Events Conditions
12:15 AM 44.6 °F 44.6 °F 100% 29.97 in 10.0 mi Calm Calm - N/A   Clear
12:35 AM 44.6 °F 44.6 °F 100% 29.97 in 10.0 mi Calm Calm - N/A   Clear
12:53 AM 44.1 °F 41.0 °F 89% 29.95 in - Calm Calm - N/A   Unknown
12:55 AM 44.6 °F 44.6 °F 100% 29.96 in 10.0 mi Calm Calm - N/A   Clear
1:15 AM 42.8 °F 42.8 °F 100% 29.96 in 10.0 mi Calm Calm - N/A   Scattered Clouds
1:35 AM 44.6 °F 44.6 °F 100% 29.96 in 10.0 mi Calm Calm - N/A   Mostly Cloudy
1:53 AM 44.1 °F 41.0 °F 89% 29.96 in - Calm Calm - N/A   Unknown
1:55 AM 44.6 °F 44.6 °F 100% 29.97 in 10.0 mi Calm Calm - N/A   Scattered Clouds
2:15 AM 44.6 °F 44.6 °F 100% 29.96 in 10.0 mi Calm Calm - N/A   Scattered Clouds
2:35 AM 44.6 °F 44.6 °F 100% 29.96 in 10.0 mi Calm Calm - N/A   Mostly Cloudy
2:53 AM 46.0 °F 42.1 °F 86% 29.94 in - Calm Calm - N/A   Unknown
2:55 AM 46.4 °F 46.4 °F 100% 29.95 in 10.0 mi Calm Calm - N/A   Scattered Clouds
3:15 AM 44.6 °F 44.6 °F 100% 29.95 in 10.0 mi Calm Calm - N/A   Mostly Cloudy
3:35 AM 44.6 °F 44.6 °F 100% 29.95 in 10.0 mi Calm Calm - N/A   Mostly Cloudy
3:53 AM 45.0 °F 42.1 °F 90% 29.95 in - Calm Calm - N/A   Unknown
3:55 AM 44.6 °F 44.6 °F 100% 29.96 in 10.0 mi Calm Calm - N/A   Mostly Cloudy
4:15 AM 46.4 °F 46.4 °F 100% 29.95 in 10.0 mi Calm Calm - N/A   Overcast
4:35 AM 48.2 °F 48.2 °F 100% 29.95 in 10.0 mi NE 4.6 mph - N/A   Mostly Cloudy
4:53 AM 46.9 °F 42.1 °F 83% 29.95 in - NNE 3.5 mph - N/A   Unknown
4:55 AM 48.2 °F 46.4 °F 93% 29.96 in 10.0 mi Calm Calm - N/A   Scattered Clouds
5:15 AM 50.0 °F 44.6 °F 82% 29.97 in 10.0 mi NE 4.6 mph - N/A   Mostly Cloudy
5:35 AM 50.0 °F 42.8 °F 76% 29.97 in 10.0 mi NE 6.9 mph - N/A   Mostly Cloudy
5:53 AM 48.9 °F 35.1 °F 59% 29.97 in - NE 5.8 mph - N/A   Unknown
5:55 AM 50.0 °F 37.4 °F 62% 29.97 in 10.0 mi NE 5.8 mph - N/A   Mostly Cloudy
6:15 AM 48.2 °F 37.4 °F 66% 29.99 in 10.0 mi ENE 3.5 mph - N/A   Scattered Clouds
6:35 AM 48.2 °F 35.6 °F 62% 30.00 in 10.0 mi NE 5.8 mph - N/A   Clear
6:53 AM 46.9 °F 34.0 °F 61% 30.00 in - Variable 3.5 mph - N/A   Unknown
6:55 AM 48.2 °F 35.6 °F 62% 30.01 in 10.0 mi ENE 4.6 mph - N/A   Clear
7:15 AM 48.2 °F 33.8 °F 58% 30.02 in 10.0 mi ENE 4.6 mph - N/A   Clear
7:35 AM 48.2 °F 33.8 °F 58% 30.03 in 10.0 mi ENE 4.6 mph - N/A   Clear
7:53 AM 48.0 °F 30.0 °F 50% 30.01 in - NE 9.2 mph - N/A   Unknown
7:55 AM 48.2 °F 32.0 °F 54% 30.02 in 10.0 mi ENE 5.8 mph - N/A   Scattered Clouds
8:15 AM 48.2 °F 32.0 °F 54% 30.01 in 10.0 mi East 6.9 mph - N/A   Scattered Clouds
8:35 AM 50.0 °F 32.0 °F 50% 30.02 in 10.0 mi ENE 5.8 mph - N/A   Clear
8:53 AM 48.9 °F 28.9 °F 46% 30.03 in - NE 9.2 mph - N/A   Unknown
8:55 AM 50.0 °F 32.0 °F 50% 30.03 in 10.0 mi NE 9.2 mph - N/A   Clear
9:15 AM 50.0 °F 30.2 °F 47% 30.05 in 10.0 mi NE 5.8 mph - N/A   Clear
9:35 AM 51.8 °F 28.4 °F 41% 30.05 in 10.0 mi ENE 10.4 mph - N/A   Clear
9:53 AM 53.1 °F 27.0 °F 37% 30.05 in - NE 8.1 mph 17.3 mph N/A   Unknown
9:55 AM 53.6 °F 28.4 °F 38% 30.05 in 10.0 mi ENE 5.8 mph 16.1 mph N/A   Clear
10:15 AM 53.6 °F 26.6 °F 35% 30.06 in 10.0 mi East 6.9 mph - N/A   Clear
10:35 AM 55.4 °F 26.6 °F 33% 30.06 in 10.0 mi East 8.1 mph - N/A   Clear
10:53 AM 57.0 °F 24.1 °F 28% 30.05 in - ENE 8.1 mph 16.1 mph N/A   Unknown
10:55 AM 57.2 °F 24.8 °F 29% 30.06 in 10.0 mi East 11.5 mph 16.1 mph N/A   Scattered Clouds
11:15 AM 59.0 °F 23.0 °F 25% 30.06 in 10.0 mi East 10.4 mph 17.3 mph N/A   Scattered Clouds
11:35 AM 59.0 °F 23.0 °F 25% 30.05 in 10.0 mi East 6.9 mph - N/A   Mostly Cloudy
11:53 AM 59.0 °F 23.0 °F 25% 30.04 in - ENE 5.8 mph - N/A   Unknown
11:55 AM 59.0 °F 24.8 °F 27% 30.05 in 10.0 mi ENE 5.8 mph - N/A   Mostly Cloudy
12:15 PM 60.8 °F 26.6 °F 27% 30.05 in 10.0 mi ENE 6.9 mph - N/A   Scattered Clouds
12:35 PM 62.6 °F 26.6 °F 26% 30.04 in 10.0 mi East 10.4 mph 16.1 mph N/A   Mostly Cloudy
12:53 PM 63.0 °F 25.0 °F 24% 30.02 in - East 9.2 mph - N/A   Unknown
12:55 PM 62.6 °F 26.6 °F 26% 30.03 in 10.0 mi ENE 8.1 mph - N/A   Mostly Cloudy
1:15 PM 64.4 °F 26.6 °F 24% 30.02 in 10.0 mi ENE 6.9 mph 16.1 mph N/A   Scattered Clouds
1:35 PM 64.4 °F 26.6 °F 24% 30.01 in 10.0 mi East 11.5 mph - N/A   Mostly Cloudy
1:53 PM 66.0 °F 26.1 °F 22% 30.00 in - ENE 8.1 mph - N/A   Unknown
1:55 PM 66.2 °F 28.4 °F 24% 30.00 in 10.0 mi NE 8.1 mph - N/A   Overcast
2:15 PM 64.4 °F 28.4 °F 26% 30.00 in 10.0 mi SE 11.5 mph - N/A   Mostly Cloudy
2:35 PM 68.0 °F 28.4 °F 23% 29.98 in 10.0 mi SE 8.1 mph - N/A   Mostly Cloudy
2:53 PM 66.0 °F 28.9 °F 25% 29.96 in - Variable 6.9 mph - N/A   Unknown
2:55 PM 68.0 °F 30.2 °F 24% 29.97 in 10.0 mi East 8.1 mph - N/A   Mostly Cloudy
3:15 PM 69.8 °F 30.2 °F 23% 29.97 in 10.0 mi East 8.1 mph - N/A   Overcast
3:35 PM 68.0 °F 30.2 °F 24% 29.96 in 10.0 mi ESE 9.2 mph - N/A   Overcast
3:53 PM 69.1 °F 30.9 °F 24% 29.95 in - Calm Calm - N/A   Unknown
3:55 PM 69.8 °F 32.0 °F 25% 29.96 in 10.0 mi East 4.6 mph - N/A   Overcast
4:15 PM 69.8 °F 32.0 °F 25% 29.95 in 10.0 mi ESE 4.6 mph - N/A   Overcast
4:35 PM 71.6 °F 32.0 °F 23% 29.95 in 10.0 mi East 5.8 mph - N/A   Mostly Cloudy
4:53 PM 71.1 °F 33.1 °F 25% 29.94 in - South 4.6 mph - N/A   Unknown
4:55 PM 71.6 °F 32.0 °F 23% 29.94 in 10.0 mi ESE 5.8 mph - N/A   Scattered Clouds
5:15 PM 71.6 °F 26.6 °F 19% 29.95 in 10.0 mi SSE 5.8 mph - N/A   Mostly Cloudy
5:35 PM 71.6 °F 28.4 °F 20% 29.95 in 10.0 mi South 4.6 mph - N/A   Overcast
5:53 PM 70.0 °F 28.9 °F 22% 29.94 in - Calm Calm - N/A   Unknown
5:55 PM 69.8 °F 30.2 °F 23% 29.95 in 10.0 mi Calm Calm - N/A   Overcast
6:15 PM 69.8 °F 32.0 °F 25% 29.95 in 10.0 mi SSE 3.5 mph - N/A   Overcast
6:35 PM 69.8 °F 32.0 °F 25% 29.95 in 10.0 mi ESE 6.9 mph - N/A   Overcast
6:53 PM 69.1 °F 35.1 °F 29% 29.94 in - ESE 5.8 mph - N/A   Unknown
6:55 PM 69.8 °F 33.8 °F 27% 29.95 in 10.0 mi ESE 3.5 mph - N/A   Overcast
7:15 PM 69.8 °F 35.6 °F 28% 29.97 in 10.0 mi Calm Calm - N/A   Overcast
7:35 PM 69.8 °F 37.4 °F 31% 29.97 in 10.0 mi Calm Calm - N/A   Overcast
7:53 PM 66.9 °F 39.0 °F 36% 29.96 in - Calm Calm - N/A   Unknown
7:55 PM 68.0 °F 37.4 °F 33% 29.97 in 10.0 mi Calm Calm - N/A   Overcast
8:15 PM 68.0 °F 39.2 °F 35% 29.98 in 10.0 mi Calm Calm - N/A   Overcast
8:35 PM 68.0 °F 41.0 °F 37% 29.98 in 10.0 mi Calm Calm - N/A   Overcast
8:53 PM 66.0 °F 39.9 °F 38% 29.97 in - Calm Calm - N/A   Unknown
8:55 PM 66.2 °F 41.0 °F 40% 29.98 in 10.0 mi Calm Calm - N/A   Overcast
9:15 PM 66.2 °F 41.0 °F 40% 29.98 in 10.0 mi Calm Calm - N/A   Overcast
9:35 PM 66.2 °F 41.0 °F 40% 29.99 in 10.0 mi Calm Calm - N/A   Overcast
9:53 PM 64.9 °F 41.0 °F 42% 29.98 in - East 3.5 mph - 0.02 in   Unknown
9:55 PM 66.2 °F 41.0 °F 40% 29.99 in 10.0 mi ESE 6.9 mph - N/A   Overcast
10:15 PM 64.4 °F 42.8 °F 45% 29.98 in 10.0 mi ESE 11.5 mph 17.3 mph N/A   Scattered Clouds
10:35 PM 62.6 °F 42.8 °F 48% 29.99 in 10.0 mi ESE 11.5 mph 16.1 mph N/A   Clear
10:53 PM 62.1 °F 42.1 °F 48% 29.98 in - ESE 11.5 mph - N/A   Unknown
10:55 PM 62.6 °F 42.8 °F 48% 29.99 in 10.0 mi ESE 12.7 mph 17.3 mph N/A   Clear
11:15 PM 62.6 °F 44.6 °F 52% 29.99 in 10.0 mi ESE 12.7 mph 19.6 mph N/A   Scattered Clouds
11:35 PM 62.6 °F 44.6 °F 52% 29.98 in 10.0 mi ESE 9.2 mph 16.1 mph N/A   Mostly Cloudy
11:53 PM 60.1 °F 43.0 °F 53% 29.97 in - ESE 9.2 mph - N/A   Unknown
11:55 PM 60.8 °F 44.6 °F 55% 29.98 in 10.0 mi ESE 9.2 mph - N/A   Scattered Clouds